www.pogodaiklimat.ru

Погода и климат >> Архив погоды >> Пакистан >> Pad Idan


ПОГОДА в Pad Idan

  • Прогноз погоды в Pad Idan
  • Монитор погоды в Pad Idan
  • Климат города

АРХИВ ПОГОДЫ в Pad Idan

Время (UTC), дата Ветер
(напр.,м/с)
 
Видим.   Явления Облачность Т
(С)
Тd
(С)
f
(%)
Тe
(С)
Тes
(С)
Комфортность P
(гПа)
Po
(гПа)
Тmin
(С)
Tmax
(С)
R
(мм)
R24
(мм)
S
(см)
03 16.09 ЮВ 1 4000 м 3/0
[Ci fib]
+26.0 +22.3 80 +34 +37 очень
душно
1007.5 1002.3 +24.1
06 16.09 ЮВ 1 4000 м ясно +32.0 +26.5 73 +49 +67 опасность
перегрева
1007.8 1008.0
09 16.09 ЮВ 1 4000 м ясно +36.0 +26.4 58 +53 +72 опасность
перегрева
1002.6 1000.0
12 16.09 Ю 1 4000 м 3/3 300 м
[Cu med, cong]
+36.0 +23.2 48 +46 +48 опасность
перегрева
1001.8 996.7 +37.1
15 16.09 Ю 1 4000 м ясно +32.0 +21.8 55 +41 +41 опасность
перегрева
1003.7 1000.0
18 16.09 СЗ 1 4000 м ясно +28.5 +23.5 74 +39 +39 очень
душно
1005.8 1000.0
21 16.09 ЮВ 1 4000 м ясно +26.5 +22.1 77 +34 +34 очень
душно
1000.5 1000.0
00 17.09 СЗ 1 4000 м ясно +25.5 +21.8 80 +33 +33 очень
душно
1003.8 998.6
03 17.09 штиль 0 4000 м ясно +27.0 +22.6 77 +36 +39 очень
душно
1006.1 1000.9 +25.1
06 17.09 ЮВ 1 4000 м ясно +32.5 +24.0 61 +44 +64 опасность
перегрева
1007.4 1000.0
09 17.09 ЮВ 1 4000 м ясно +36.0 +25.6 55 +51 +70 опасность
перегрева
1004.9 1000.0
12 17.09 штиль 0 4000 м ясно +35.5 +25.1 55 +49 +53 опасность
перегрева
1002.9 997.7 +37.0
15 17.09 Ю 1 4000 м ясно +31.5 +23.6 63 +43 +43 опасность
перегрева
1004.0 1000.0
18 17.09 Ю 1 4000 м ясно +28.5 +22.7 71 +38 +38 очень
душно
1006.0 1000.0
21 17.09 Ю 1 4000 м ясно +27.5 +22.4 74 +36 +36 очень
душно
1005.2 1000.0
00 18.09 Ю 1 4000 м ясно +26.0 +22.3 80 +34 +34 очень
душно
1003.9 998.7
06 18.09 ЮВ 1 4000 м ясно +32.0 +23.4 60 +43 +62 опасность
перегрева
1008.1 1000.0
09 18.09 ЮВ 1 4000 м ясно +35.0 +25.3 57 +49 +68 опасность
перегрева
1005.8 1000.0
12 18.09 ЮВ 1 4000 м ясно +36.0 +23.2 48 +46 +49 опасность
перегрева
1002.9 997.6 +37.5
15 18.09 ЮВ 1 4000 м ясно +34.0 +24.1 56 +46 +46 опасность
перегрева
1003.7 1000.0
18 18.09 ЮЗ 1 4000 м ясно +27.0 +22.6 77 +36 +36 очень
душно
1005.6 1006.0
21 18.09 ЮЗ 1 4000 м ясно +26.0 +21.5 76 +33 +33 очень
душно
1005.4 1000.0
00 19.09 ЮЗ 1 4000 м ясно +25.5 +21.8 80 +33 +33 очень
душно
1005.0 1000.0
03 19.09 ЮЗ 1 4000 м ясно +28.0 +20.5 64 +35 +38 очень
душно
1005.3 1000.0 +25.1
06 19.09 ЮВ 1 4000 м ясно +32.0 +24.2 63 +44 +63 опасность
перегрева
1007.3 1000.0
09 19.09 ЮВ 1 4000 м ясно +35.0 +25.3 57 +49 +68 опасность
перегрева
1004.8 1000.0
12 19.09 ЮВ 1 4000 м ясно +36.5 +24.6 51 +49 +52 опасность
перегрева
1002.3 997.2 +37.5
15 19.09 ЮВ 1 4000 м ясно +31.5 +25.2 69 +45 +45 опасность
перегрева
1003.5 1000.0
18 19.09 штиль 0 4000 м ясно +27.5 +22.4 74 +36 +36 очень
душно
1004.7 1000.0
21 19.09 штиль 0 4000 м ясно +25.5 +21.8 80 +33 +33 очень
душно
1003.8 1000.0
00 20.09 ЮВ 1 4000 м ясно +24.0 +21.0 83 +30 +30 очень
душно
1002.8 997.5
03 20.09 ЮВ 1 4000 м ясно +24.5 +20.7 79 +30 +34 очень
душно
1004.5 999.2 +22.5
06 20.09 ЮВ 1 4000 м ясно +32.5 +24.0 61 +44 +63 опасность
перегрева
1005.8 1000.0
09 20.09 ЮВ 1 4000 м ясно +36.0 +23.2 48 +46 +65 опасность
перегрева
1004.9 1000.0
12 20.09 штиль 0 4000 м ясно +36.0 +24.0 50 +47 +51 опасность
перегрева
1002.8 997.6 +37.1
15 20.09 штиль 0 4000 м ясно +32.5 +25.3 66 +47 +47 опасность
перегрева
1003.7 1000.0
18 20.09 штиль 0 4000 м ясно +28.0 +22.1 70 +36 +36 очень
душно
1005.5 1000.0
21 20.09 штиль 0 4000 м ясно +26.0 +21.5 76 +33 +33 очень
душно
1004.5 1005.0
00 21.09 штиль 0 4000 м ясно +23.5 +20.5 83 +29 +29 душно 1003.6 998.4
12 21.09 ЮЗ 1 4000 м ясно +40.0 +23.1 38 +49 +52 опасность
перегрева
1004.7 999.4 +41.1
21 21.09 ЮЗ 1 4000 м ясно +29.0 +22.0 66 +37 +37 очень
душно
1005.4 1000.0
00 22.09 ЮЗ 1 4000 м ясно +29.0 +22.0 66 +37 +37 очень
душно
1005.4 1000.0
03 22.09 ЮЗ 1 4000 м ясно +26.0 +20.2 70 +32 +35 очень
душно
1005.8 1000.5 +24.1
06 22.09 В 1 4000 м ясно +35.0 +22.0 47 +44 +62 опасность
перегрева
1007.6 1000.0
09 22.09 СВ 1 4000 м ясно +39.0 +26.8 50 +55 +74 опасность
перегрева
1006.0 1000.0
12 22.09 ЮВ 1 4000 м ясно +38.0 +25.6 49 +52 +55 опасность
перегрева
1004.1 999.0 +40.1
15 22.09 штиль 0 4000 м ясно +34.0 +25.7 62 +49 +49 опасность
перегрева
1005.3 1000.0
18 22.09 С 1 4000 м ясно +28.0 +22.1 70 +36 +36 очень
душно
1007.1 1000.0
21 22.09 С 1 4000 м ясно +26.0 +21.5 76 +33 +33 очень
душно
1006.2 1006.0

 

Местоположение метеостанции Pad Idan (Пакистан): широта 26.85 долгота 68.13 высота над уровнем моря 47 м.

В архиве по умолчанию представлена погода в Pad Idan за последнюю неделю. Архивные данные за месяц целиком и за предыдущие месяцы, начиная с января 2011 года, Вы можете получить, выбрав интересующий диапазон дат из раскрывающегося списка и нажав кнопку "Ввод!".


*Определитесь, кто Вы:
робот инопланетянин человек

Внимание! Время в таблицах - всемирное. Для получения местного времени необходимо прибавить поправку, которая в Pad Idan равна 5 ч.

Смотрите также архив погоды в соседних городах и на ближайших метеорологических станциях:

Погода в Nawabshah (Пакистан) (71 км)
Погода в Rohri (Пакистан) (119 км)
Погода в Jacobabad (Пакистан) (165 км)
Погода в Hyderabad (Пакистан) (166 км)
Погода в Khuzdar (Пакистан) (184 км)
Погода в Sakrand (Пакистан) (192 км)
Погода в Chhor (Пакистан) (221 км)
Погода в Karachi (Пакистан) (239 км)
Погода в Badin (Пакистан) (259 км)
Погода в Jaisalmer (Rajasthan, Индия) (277 км)

Пояснения к столбцам:

Ветер - указаны скорость ветра в м/с - средняя за 10 мин, порывы в срок и между сроками (в фигурных скобках) и направление, откуда дует ветер: С - северный, СВ - северо-восточный, В - восточный, ЮВ - юго-восточный, Ю - южный, ЮЗ - юго-западный, З - западный, СЗ - северо-западный.
Видимость - горизонтальная дальность видимости в метрах или километрах. При видимости от 1 до 10 км при отсутствии осадков обычно наблюдается дымка, при ухудшении видимости до 1 км и менее - туман. В сухую погоду видимость может ухудшаться дымом, пылью или мглою.
Явления - указаны атмосферные явления, наблюдавшиеся в срок или в последний час перед сроком; фигурными скобками обозначены явления, наблюдавшиеся между сроками (за 1-3 часа до срока); квадратными скобками обозначены град или гололедные отложения с указанием их диаметра в мм.
Облачность - указаны через наклонную черту общая и нижняя облачность в баллах и высота нижней границы облаков в метрах; квадратными скобками обозначены формы облаков: Ci - перистые, Cs - перисто-слоистые, Cc - перисто-кучевые, Ac - высококучевые, As - высокослоистые, Sc - слоисто-кучевые, Ns - слоисто-дождевые, Cu - кучевые, Cb - кучево-дождевые. Подробнее классификацию облаков см. в Атласе облаков (PDF).
T - Температура воздуха - температура, измеренная на высоте 2 м над землей.
Td - Температура точки росы - температура, при понижении до которой содержащийся в воздухе водяной пар достигнет насыщения.
f - Относительная влажность воздуха - влажноcть воздуха, измеренная на высоте 2 м над землей.
Te - Эффективная температура - температура, которую ощущает одетый по сезону человек в тени. Характеристика душности погоды. При расчете учитывается влияние влажности воздуха и скорости ветра на теплоощущения человека.
Tes - Эффективная температура на солнце - температура, которую ощущает человек, с поправкой на солнечный нагрев. Характеристика знойности погоды. Зависит от высоты солнца над горизонтом, облачности и скорости ветра. Ночью, в пасмурную погоду, а также при ветре 12 м/с и более поправка равна нулю.
P - Атмосферное давление - приведенное к уровню моря атмосферное давление.
Po - Атмосферное давление - измеренное на уровне метеостанции атмосферное давление.
Tmin - Минимальная температура - минимум температуры воздуха на высоте 2 м над землей.
Tmax - Максимальная температура - максимум температуры воздуха на высоте 2 м над землей.
R - Количество осадков - Количество выпавших осадков за период времени, мм. При наведении курсора мыши на число - период времени, за который выпало указанное количество осадков.
R24 - Количество осадков - Количество выпавших осадков за 24 часа, мм.
S - Снежный покров - Высота снежного покрова, см. При наведении курсора мыши на число - состояние снежного покрова и степень покрытия местности в баллах.